Location: Lombard
(41.8800°N, 88.0080°W)
Time: 12:30:04
(UTC-05:00)

A-11 Canister half - Pass Details

Date: 31 January 2023
Orbit: 1512 x 1687 km, 47.2° (Epoch: 20 March)

Event Time Altitude Azimuth Distance (km) Brightness Sun altitude
Rises 11:21:22 0° 228° (SW) 4,844 12.0 29.9°
Reaches altitude 10° 11:24:32 10° 226° (SW) 3,837 11.6 30.1°
Maximum altitude 11:34:11 69° 146° (SE) 1,667 10.2 30.4°
Drops below altitude 10° 11:43:29 10° 66° (ENE) 3,716 10.9 30.6°
Sets 11:46:30 0° 64° (ENE) 4,685 11.4 30.7°
